KINEIS-2D

Last updated on Wed Oct 22 2025 00:02:42 GMT+0000 (Coordinated Universal Time)

1 62930U 25028C 25294.43491488 .00003634 00000+0 55257-3 0 9992 2 62930 97.9633 346.2067 0002034 234.3488 125.7531 14.74601222 37517
UTC large
Height (km)
Speed (km/s)
/
Latitude / Longitude
Inclination (degrees)
Orbital Period (minutes)
Azimuth
Elevation
Range (km)
Doppler Factor

Next 0 passes for location: London (51.5072 / 0.1276)

Sorry there are no passes over London.